Location: Unspecified
(42.3650°N, 71.1030°W)
Time: 16:03:12
(UTC+00:00)

Transit 4A - Pass Details

Date: 30 June 2024
Orbit: 870 x 973 km, 66.8° (Epoch: 17 July)

Event Time Altitude Azimuth Distance (km) Brightness Sun altitude
Rises 02:35:51 0° 246° (WSW) 3,456 11.0 -17.7°
Reaches altitude 10° 02:38:44 10° 259° (WSW) 2,516 10.4 -18.0°
Maximum altitude 02:43:33 26° 315° (NW) 1,638 10.0 -18.5°
Drops below altitude 10° 02:48:24 10° 11° (NNE) 2,531 10.9 -18.9°
Sets 02:51:20 0° 24° (NNE) 3,481 11.4 -19.2°
